カタログに戻る

STARLINK-34898

運用中通信VLEO
NORAD 65895·PAYLOAD·🇺🇸 United States

打ち上げ Oct 7, 2025 から Cape Canaveral Space Force Station

Loading…

次のパス (今後24時間)

TLE

最新Source: CelesTrak SupGP

元期: Sep 15, 2026, 02:58 UTC

1 65895C 25224P   26258.12409722 -.00069405  00000+0 -20506-2 0  2586
2 65895  53.1577 207.1701 0001341  87.8937  61.7819 15.34424528    13

AllMySatでSTARLINK-34898をリアルタイム追跡

Download on the App Store